Showing default

ORBCOMM FM 15, 25418

Orbit data source: Space-Track

ORBCOMM FM 15, 25418 is a payload satellite owned by Orbcomm (US) in LEO that was launched on Sun, 02 Aug 1998 UTC via a PEGASUS XL/HAPS launch vehicle from the Pegasus Launch, Eastern Range Air Space (ERAS). Payload-class satellites include a variety of spacecraft equipped with specific instruments for various scientific and technological missions. These include communications satellites like Starlink; space stations such as the ISS; scientific satellites like the Hubble; Earth observation satellites from companies like Planet Labs, Umbra, and HawkEye 360; GPS; miniature CubeSats for education and research; and military/defense satellites.

Loading next visibility...
Identifier
25418, 1998-046F
Orbit
LEO
Country
Flag of USUS / ORB
Related business
Manufacturer
OSC-Germantown
Mission
Non-operational Commercial Communications
Bus & Motor
MICROSTAR, Unknown motor
Mass
42 kg wet, 42 kg dry
Launch date (UTC)
1998-08-02 (27 years ago)
Launch vehicle
PEGASUS XL/HAPS
Launch site
Pegasus Launch, Eastern Range Air Space (ERAS)
Object type
Payload
Rocket body
Debris
Shape & HBR
Cyl + 2 Pan, 4.2 m
Radar Cross Section
1.484 m², Medium (>0.1 m² and < 1m²)

Expand to show TLE details & history
Last TLE update: 22 hours ago

TLE from 22 hours ago
0 ORBCOMM FM 15
1 25418U 98046F   25293.70637239  .00002018  00000-0  69410-3 0  9999
2 25418  44.9971 302.1421 0005562 236.1153 123.9166 14.38931846422326
Epoch: 2025-10-20T16:57Z
TLE epoch observation values (Epoch: 2025-10-20T16:57:10.574Z)
Latitude
-0.00007°
Longitude
18.44314°
Altitude
764.246 km
Speed
7.473 km/s
True Right ascension
20h 08m 34s
True Declination
0° 00' 00"
Sunlit
Object was in daylight at epoch
Visualization orbit readout
Latitude
Unknown
Longitude
Unknown
Altitude
Unknown
Speed
Unknown
Apparent Right ascension
Unknown
Apparent Declination
Unknown
Sunlit
N/A
Visualization observer readout
Local Sidereal Time
09:58:35
Azimuth
Unknown
Elevation
Unknown
Doppler factor
Unknown
Orbital elements
Apogee altitude
767.549 km
Perigee altitude
759.605 km
Semi-major axis
7,141.714 km
Eccentricity
0.00056
Inclination
44.9971°
RAAN
302.1421°
Arg. of periapsis
236.1153°
True anomaly
123.96947°
Mean anomaly
123.9166°
Eccentric anomaly
123.94304°
Mean motion
3.59616 °/min
Orbital period
100.11 mins
BSTAR
0.0006941
Loading maneuver chart data...
Computing Atmospheric mass density...

Documentation

Showing up to 5 results
|